Weather in Romodan

Ukraine / Poltava Region     49°59′42″N   33°19′19″E
temp.,
°C
wind,
m/s
gust,
m/s
humid.,
%
clouds,
%
prec.,
mm/h
press.,
hPa
HPBL,
m
24 may, tue
tue2400:00+8wsw2268100 0.0 101111
03:00+9wnw346955 0.0 101174
06:00+8nnw358095 0.0 1011133
09:00+13nnw45642 0.0 1012582
12:00+16nnw44465 0.0 10122110
15:00+17nnw353937 0.0 10122402
18:00+15nnw3664100 0.0 1013230
21:00+11nw347749 0.0 101453
25 may, wed
wed2500:00+9nnw33815 0.0 101622
03:00+8wnw33784 0.0 101733
06:00+8wnw35840 0.0 1018102
09:00+15wnw356489 0.0 1018491
12:00+19nw3448100 0.0 10182057
15:00+19wnw234484 0.0 10182081
18:00+18nw1258100 0.0 1018542
21:00+14sw336673 0.0 101848
26 may, thu
thu2600:00+13s3455100 0.0 101774
03:00+13s3960100 0.0 1016190
06:00+12sse4977100 0.4 1014207
09:00+13ssw81575100 0.7 1013899
12:00+12ssw71296100 4.1 1011783
15:00+15wnw8138376 4.9 10111090
18:00+17nw714670 0.3 10121675
21:00+12w48843 0.3 1013150
27 may, fri
fri2700:00+12wsw511913 0.0 1014211
03:00+11wsw5128957 0.0 1014263
06:00+11wsw614875 0.0 1014407
09:00+16w711725 0.0 1014913
12:00+19w8106036 0.1 10131776
15:00+21w795156 0.1 10122163
18:00+19wsw4866100 0.0 1011576
21:00+16ssw497793 0.0 1010176
28 may, sat
sat2800:00+18ssw61368100 0.0 1008451
03:00+16wsw61483100 0.5 1007642
06:00+12wnw2991100 0.6 1008547
09:00+13w5784100 0.7 1009756
12:00+16w586060 0.0 10101534
15:00+17w71056100 0.1 10101934
18:00+16wsw4861100 0.1 1010891
21:00+12w227263 0.3 101218